Volver al catálogo

DELTA 1 DEB

ActivoSSO
NORAD 12530·DEBRIS·🇺🇸 United States

Lanzado Jul 29, 1976 desde Vandenberg Space Force Base

Loading…

Próximos Pases (próximas 24 horas)

TLE

ActualizadoSource: Space-Track

Época: Sep 14, 2026, 10:44 UTC

1 12530U 76077DK  26257.44749307 -.00000050  00000-0 -38590-4 0  9994
2 12530 102.5742 246.9241 0126491 160.5302 354.0831 12.27058169 94033

Sigue DELTA 1 DEB en tiempo real con AllMySat

Download on the App Store